"Pseudo-MPEC" for CEJJ1D2

Created 2026 Apr 16 23:35:09 UT using Find_Orb

Click here for an explanation of pseudo-MPECs

 
 Astrometry: 
     CEJJ1D2*1C2026 04 16.34960514 26 35.977+06 10 53.94   ~4G95 21.23GVNEOCPG96
     CEJJ1D2 1C2026 04 16.35474914 26 36.028+06 10 23.45   ~4G95 21.10GVNEOCPG96
     CEJJ1D2 1C2026 04 16.35989314 26 36.186+06 09 52.24   ~4G95 20.87GVNEOCPG96
     CEJJ1D2 1C2026 04 16.36504614 26 36.164+06 09 21.53   ~4G95 22.18GVNEOCPG96
     CEJJ1D2  C2026 04 16.38861614 26 36.252+06 06 58.92   ~4GA5 21.2 GWNEOCPH01
     CEJJ1D2  C2026 04 16.39286914 26 36.301+06 06 33.46   ~4GA5 21.2 GWNEOCPH01
     CEJJ1D2  C2026 04 16.40463514 26 36.442+06 05 22.80   ~4GA5 21.7 GWNEOCPH01
     CEJJ1D2  C2026 04 16.40990914 26 36.513+06 04 51.14   ~4GA5 21.3 GWNEOCPH01

Station data:
(G96) Mt. Lemmon Survey  (N32.442729 W110.788720)  US/Arizona.  Observer E.
   J. Christensen. Measurers T. Beuden, V. F. Carvajal, D. Fay, J. B.
   Fazekas, D. C. Fuls, A. R. Gibbs, A. D. Grauer, H. Gröller, J. K. Hogan,
   R. A. Kowalski, S. M. Larson, G. J. Leonard, D. Rankin, R. L. Seaman, F.
   C. Shelly, K. W. Wierzchoś. 1.5-m reflector + 10K CCD.
(H01) Magdalena Ridge Observatory, Socorro  (N33.984833 W107.189333)  US/New
   Mexico.  Observers W. H. Ryan, E. V. Ryan. Measurer W. H. Ryan. 2.4-m
   f/8.9 reflector + CCD.

Orbital elements:  CEJJ1D2
   Perihelion 2026 Mar 8.487373 +/- 29.1 TT = 11:41:49.0 (JD 2461107.987373)
Epoch 2026 Apr 16.0 TT = JDT 2461146.5   Earth MOID: 0.0890   Ju: 0.5617
M   8.117089721 +/- 10              Ma: 0.0364                   AutoNEOCP
n   0.210764376 +/- 0.142           Peri.  114.254769 +/- 37
a   2.796434022 +/- 1.25            Node    47.555136 +/- 5.4
e   0.64027262 +/- 0.162            Incl.    6.571182 +/- 4.4
P   4.67635                H 24.71  G  0.15   U 11.4  SR
q 1.005953872 +/- 0.0859    Q 4.586914172 +/- 1.88        (J2000 ecliptic)
From 8 observations 2026 Apr. 16 (86.8 min); mean residual 0".33
Residuals in arcseconds: 
260416 G96  .40-  .13-    260416 G96  .11-  .01-    260416 H01  .12-  .06-    
260416 G96  .47-  .21+    260416 H01  .12+  .15+    260416 H01  .11-  .15-    
260416 G96  1.1+  .18-    260416 H01  .05+  .16+    

Ephemerides (geocentric):
Date (UTC) HH   RA             Dec           delta  r     elong  mag " sig PA
---- --------  ------------   ------------  ------ ------ -----  --- --------
2026 04 17 00  14 26 56.964   +05 07 44.87  .14182 1.1384 160.5 21.7  100  85
2026 04 17 01  14 26 58.234   +05 03 45.68  .14203 1.1386 160.6 21.7  107  79
2026 04 17 02  14 26 59.497   +04 59 47.14  .14223 1.1389 160.6 21.7  115  70
2026 04 17 03  14 27 00.752   +04 55 49.22  .14244 1.1391 160.7 21.7  124  58
2026 04 17 04  14 27 02.000   +04 51 51.94  .14265 1.1394 160.7 21.7  135  46
2026 04 17 05  14 27 03.242   +04 47 55.29  .14286 1.1396 160.8 21.7  148  37
2026 04 17 06  14 27 04.476   +04 43 59.26  .14307 1.1399 160.9 21.7  162  31
2026 04 17 07  14 27 05.703   +04 40 03.87  .14328 1.1401 160.9 21.7  177  27
2026 04 17 08  14 27 06.923   +04 36 09.09  .14349 1.1404 161.0 21.7  194  24
2026 04 17 09  14 27 08.136   +04 32 14.95  .14370 1.1407 161.0 21.7  211  22
2026 04 17 10  14 27 09.342   +04 28 21.42  .14391 1.1409 161.1 21.7  229  20
2026 04 17 11  14 27 10.541   +04 24 28.52  .14412 1.1412 161.2 21.7  248  19
2026 04 17 12  14 27 11.733   +04 20 36.23  .14433 1.1414 161.2 21.7  268  18
2026 04 17 13  14 27 12.919   +04 16 44.56  .14454 1.1417 161.3 21.7  289  17
2026 04 17 14  14 27 14.097   +04 12 53.51  .14475 1.1419 161.3 21.7  311  16
2026 04 17 15  14 27 15.269   +04 09 03.07  .14496 1.1422 161.4 21.7  333  16
2026 04 17 16  14 27 16.434   +04 05 13.24  .14517 1.1425 161.5 21.7  356  15
2026 04 17 17  14 27 17.593   +04 01 24.02  .14538 1.1427 161.5 21.7  380  15
2026 04 17 18  14 27 18.745   +03 57 35.41  .14560 1.1430 161.6 21.7  406  14
2026 04 17 19  14 27 19.890   +03 53 47.41  .14581 1.1432 161.6 21.7  431  14
2026 04 17 20  14 27 21.029   +03 50 00.01  .14602 1.1435 161.7 21.7  458  14
2026 04 17 21  14 27 22.161   +03 46 13.22  .14624 1.1437 161.8 21.7  486  13
2026 04 17 22  14 27 23.287   +03 42 27.02  .14645 1.1440 161.8 21.7  514  13
2026 04 17 23  14 27 24.406   +03 38 41.43  .14666 1.1443 161.9 21.7  544  13
2026 04 18 00  14 27 25.518   +03 34 56.44  .14688 1.1445 161.9 21.7  574  12
2026 04 18 01  14 27 26.625   +03 31 12.04  .14709 1.1448 162.0 21.7  605  12
2026 04 18 02  14 27 27.725   +03 27 28.24  .14731 1.1450 162.0 21.7  637  12
2026 04 18 03  14 27 28.819   +03 23 45.04  .14752 1.1453 162.1 21.7  670  12
2026 04 18 04  14 27 29.906   +03 20 02.42  .14774 1.1456 162.2 21.7  704  12
2026 04 18 05  14 27 30.987   +03 16 20.40  .14795 1.1458 162.2 21.7  739  11
2026 04 18 06  14 27 32.062   +03 12 38.97  .14817 1.1461 162.3 21.7  775  11
2026 04 18 07  14 27 33.131   +03 08 58.12  .14838 1.1463 162.3 21.7  812  11
2026 04 18 08  14 27 34.193   +03 05 17.86  .14860 1.1466 162.4 21.7  849  11
2026 04 18 09  14 27 35.250   +03 01 38.18  .14882 1.1469 162.5 21.7  888  11
2026 04 18 10  14 27 36.300   +02 57 59.08  .14903 1.1471 162.5 21.7  928  11
2026 04 18 11  14 27 37.345   +02 54 20.57  .14925 1.1474 162.6 21.7  968  11
2026 04 18 12  14 27 38.383   +02 50 42.63  .14947 1.1476 162.6 21.7 1010  10
2026 04 18 13  14 27 39.415   +02 47 05.27  .14969 1.1479 162.7 21.7 1052  10
2026 04 18 14  14 27 40.442   +02 43 28.49  .14990 1.1482 162.7 21.7 1096  10
2026 04 18 15  14 27 41.462   +02 39 52.28  .15012 1.1484 162.8 21.7 1140  10
2026 04 18 16  14 27 42.477   +02 36 16.65  .15034 1.1487 162.9 21.7 1186  10
2026 04 18 17  14 27 43.486   +02 32 41.58  .15056 1.1489 162.9 21.7 1232  10
2026 04 18 18  14 27 44.489   +02 29 07.09  .15078 1.1492 163.0 21.7 1280  10
2026 04 18 19  14 27 45.486   +02 25 33.16  .15100 1.1495 163.0 21.7 1328  10
2026 04 18 20  14 27 46.477   +02 21 59.80  .15122 1.1497 163.1 21.7 1378  10
2026 04 18 21  14 27 47.463   +02 18 27.01  .15144 1.1500 163.1 21.7 1429  10
2026 04 18 22  14 27 48.443   +02 14 54.77  .15166 1.1502 163.2 21.7 1480   9
2026 04 18 23  14 27 49.418   +02 11 23.10  .15188 1.1505 163.3 21.7 1533   9